GFSNW_850_spd_102.txt.gz
Wind_Speed
31 28 27 26 26 28 25 9 3 9 10 3 2 3 4 3 2 1 3 2 2 2 5 4 4 7 5 9 3 5 1 4 7 14 23 16 13 6 4 3 4 6 2 4
28 27 27 25 26 26 18 11 7 5 8 3 0 1 2 4 5 4 4 3 5 3 3 3 4 4 7 9 1 3 2 3 6 12 2 8 4 2 2 6 2 2 2 4
28 27 26 25 26 24 14 7 3 4 4 3 4 3 2 3 8 3 6 3 2 2 2 4 5 10 8 5 10 12 7 6 10 10 10 7 6 12 11 4 2 4 5 6
26 25 24 24 25 20 11 4 3 5 2 0 5 4 2 2 2 3 5 3 4 3 4 8 6 4 5 7 8 5 4 7 12 19 21 15 14 13 13 16 7 5 4 10
24 24 23 24 22 16 6 5 4 5 6 11 5 3 2 4 2 3 2 3 6 6 5 8 11 10 2 6 2 3 4 5 9 19 20 11 5 12 9 18 15 10 9 10
23 23 22 24 20 15 5 7 10 8 8 4 4 3 5 5 6 4 7 6 3 10 12 16 23 24 21 16 6 4 5 4 5 13 14 11 11 11 14 22 20 7 8 6
20 20 21 21 17 13 14 13 10 5 2 3 4 5 5 3 5 6 4 7 4 9 13 26 23 20 21 18 16 14 8 8 2 2 2 6 6 8 18 24 17 13 11 9
16 18 21 21 16 13 14 13 6 4 3 1 5 6 4 8 6 2 5 7 14 19 12 3 5 2 3 4 8 6 11 4 4 2 6 10 3 10 9 7 10 12 10 8
18 20 21 19 16 13 11 10 8 7 9 3 3 4 6 2 3 5 3 16 6 8 1 2 3 3 3 4 4 7 6 7 2 2 4 4 5 18 16 7 5 12 12 11
19 19 19 18 16 13 10 11 8 7 6 4 6 3 2 3 2 1 4 11 8 12 3 2 3 3 7 5 5 6 4 3 7 5 4 4 13 19 4 5 1 9 11 12
20 17 17 18 15 13 9 10 8 6 4 4 4 3 2 4 0 2 6 4 6 5 5 3 3 3 3 1 4 4 6 4 4 3 4 3 27 5 5 6 10 11 12 13
18 16 15 16 13 11 8 10 8 6 4 4 2 3 2 3 4 1 4 2 3 4 3 3 2 2 3 4 3 7 5 5 2 5 3 5 12 14 12 12 13 11 14 14
14 15 16 15 13 11 7 7 7 6 6 7 7 9 4 4 5 2 1 0 4 4 8 3 1 1 2 3 2 2 6 12 4 3 4 9 10 12 12 13 13 12 13 15
15 17 17 15 13 11 9 8 8 9 4 3 1 4 3 2 3 2 1 1 2 9 6 2 1 1 5 2 2 3 3 6 3 5 9 11 10 10 11 14 15 15 15 15
15 15 15 14 11 9 8 6 6 6 4 1 6 3 1 5 1 4 2 2 3 6 4 2 0 0 2 3 3 2 5 1 1 2 6 8 7 9 12 15 14 13 15 16
14 12 12 13 12 10 7 4 3 5 4 3 2 5 1 4 1 3 5 3 5 3 2 3 2 3 1 2 2 1 6 3 6 6 8 15 14 13 13 16 15 15 14 13
12 11 14 13 12 10 5 4 6 6 3 2 4 5 3 5 6 3 4 6 2 3 2 2 1 2 4 2 2 6 10 11 16 18 17 13 7 13 14 13 14 13 13 12
15 16 13 12 11 11 11 12 7 8 3 1 1 3 5 1 2 1 0 2 1 2 2 3 2 2 4 3 8 13 11 11 10 7 1 14 19 16 14 11 12 14 12 10
17 14 12 10 6 4 5 5 7 2 1 2 1 2 2 1 1 2 1 1 2 1 0 2 3 2 2 4 15 12 13 4 17 17 18 18 16 16 11 11 11 12 11 10
16 15 5 5 7 9 8 4 2 1 1 2 2 2 2 0 0 0 1 0 2 0 3 2 3 2 5 12 12 10 8 15 14 17 18 20 19 18 13 9 8 7 8 8
14 6 3 10 13 7 2 2 1 2 2 4 4 7 2 1 2 2 3 2 1 1 3 1 2 2 4 10 12 12 10 8 17 16 15 12 11 14 12 11 9 10 10 9
6 8 11 15 5 2 2 2 3 3 4 6 5 6 8 3 1 2 0 1 2 2 2 1 1 1 15 15 13 13 15 12 14 15 16 13 11 10 11 13 13 12 9 8
13 3 5 4 2 2 4 5 2 1 4 8 8 1 4 3 1 2 2 1 3 2 0 2 1 13 18 20 19 18 16 13 13 16 13 12 14 14 13 14 12 9 7 6
2 3 4 3 3 4 4 3 4 3 4 15 11 4 2 2 3 1 1 3 1 2 1 4 4 20 24 22 19 18 18 14 14 15 15 15 16 17 14 11 10 7 5 3
0 2 4 5 5 1 4 4 4 6 12 14 6 3 2 1 3 1 0 2 3 4 3 2 17 25 26 22 19 16 17 16 16 16 17 17 16 13 12 9 6 4 2 2
2 3 2 3 4 2 4 5 4 5 9 8 1 2 3 2 3 3 4 3 4 2 1 9 21 26 23 20 18 16 15 15 16 18 18 16 13 10 8 6 5 2 1 1
2 2 3 2 4 3 6 5 6 6 8 1 1 3 6 1 1 2 1 3 2 5 8 11 19 20 21 20 19 18 18 18 19 20 17 14 13 9 7 5 4 4 3 1

GFSNW_850_spd_105.txt.gz
Wind_Speed
55 48 40 40 36 35 32 15 3 15 18 4 3 3 4 5 4 3 2 2 1 2 2 3 4 6 6 6 1 4 3 2 6 11 18 16 11 8 6 3 4 4 1 3
45 40 38 37 38 39 25 9 8 10 9 3 1 2 4 5 3 2 2 2 3 2 2 2 5 5 5 8 3 4 3 2 5 10 5 7 3 2 11 3 2 3 3 3
43 39 38 35 38 35 16 9 3 4 5 2 4 5 3 4 5 3 3 0 2 0 3 5 4 3 4 5 6 17 6 4 8 9 12 9 9 14 19 11 3 5 4 3
40 37 35 37 39 28 11 4 3 7 3 2 4 4 2 4 3 3 2 2 3 3 3 3 5 6 3 6 8 2 5 7 11 17 19 18 13 11 14 5 5 4 5 6
35 34 34 37 33 22 6 7 5 5 5 13 6 3 5 5 2 4 3 3 4 3 5 6 5 6 3 5 3 4 2 4 6 18 15 2 14 19 17 11 12 10 12 8
32 31 31 33 28 20 6 10 14 13 7 4 4 4 6 7 5 4 6 5 1 4 11 20 26 24 16 13 5 4 4 3 3 5 14 11 10 10 14 11 16 9 5 6
29 27 27 26 22 15 11 20 12 6 2 3 4 6 4 6 6 6 3 7 3 6 16 20 20 22 21 18 16 14 7 4 3 4 8 4 6 6 12 17 13 12 11 9
26 25 24 21 18 14 18 19 8 5 3 3 3 8 5 9 5 1 3 5 9 13 7 3 5 1 3 7 8 3 10 4 2 2 7 7 2 7 6 5 6 11 8 5
24 25 24 20 17 15 15 15 10 10 10 0 5 5 5 3 1 2 3 6 6 8 1 1 3 3 3 2 2 7 6 3 2 2 4 3 3 13 12 5 3 10 11 9
24 25 22 18 15 13 11 13 12 9 9 4 6 3 4 4 3 1 3 7 6 9 3 2 2 3 4 4 5 5 4 3 6 4 4 5 10 17 4 3 1 8 9 12
24 24 20 18 14 12 11 13 11 8 7 9 8 6 5 3 3 3 2 2 4 3 3 2 2 2 3 2 3 5 5 4 4 3 3 4 21 3 3 6 9 8 8 11
20 21 19 17 14 13 12 15 12 14 7 8 8 3 4 2 4 4 3 4 1 1 2 2 2 2 3 2 2 5 4 4 2 5 3 5 8 12 11 11 13 11 12 11
18 17 17 15 14 11 10 13 13 17 18 13 11 8 8 9 6 4 2 1 2 2 3 2 1 1 2 3 2 2 4 9 3 1 4 9 10 11 12 11 14 13 12 12
17 17 17 16 14 12 10 13 12 14 9 5 3 8 6 3 2 4 3 3 2 5 2 1 1 1 5 2 2 3 2 6 4 5 5 9 9 9 10 13 13 13 11 10
19 18 17 16 15 14 12 13 13 11 6 4 4 6 3 3 3 4 3 2 3 5 2 2 1 1 2 2 2 2 4 1 2 2 11 8 6 9 9 12 11 11 13 12
18 17 15 14 14 13 11 5 7 9 8 4 2 2 5 6 4 2 1 2 3 2 1 1 1 1 1 2 1 1 4 3 8 6 9 9 15 12 12 13 11 10 10 9
15 15 14 13 12 9 4 5 7 7 5 3 2 3 2 4 5 3 3 4 2 1 0 1 1 2 3 2 3 8 10 15 19 21 24 16 16 9 13 13 11 10 10 10
14 16 15 15 16 16 14 12 10 6 4 4 2 1 2 3 3 3 2 2 1 2 1 1 2 2 3 2 4 16 13 15 16 5 2 11 16 17 14 12 12 12 11 11
18 16 16 14 11 5 9 12 7 3 3 3 2 3 2 1 2 3 2 1 1 1 1 2 3 2 1 6 14 14 16 9 13 13 18 21 18 16 14 13 12 13 12 10
18 17 4 5 6 12 9 3 1 2 3 2 1 1 1 0 1 1 2 0 1 1 2 4 2 1 2 11 16 14 12 17 21 23 17 17 17 16 14 12 11 11 11 11
15 3 4 14 14 4 2 3 2 2 2 2 2 3 1 1 2 2 1 2 0 1 2 2 2 2 4 13 15 13 15 20 17 9 13 12 14 17 14 13 11 11 10 9
6 10 12 10 2 2 1 1 1 1 2 5 5 5 5 1 1 1 0 1 2 3 2 1 2 2 13 16 15 17 13 14 19 15 14 12 12 11 11 12 13 11 9 7
13 4 4 3 1 2 3 3 1 1 3 6 5 0 3 2 1 3 2 2 3 3 1 2 1 10 18 18 16 17 14 14 16 18 14 12 12 12 12 13 12 9 7 5
2 3 3 1 1 3 3 4 4 3 3 12 9 3 2 1 3 1 3 3 1 3 1 4 2 17 20 18 18 18 18 14 14 15 13 13 14 16 14 11 9 7 5 4
2 1 2 4 3 2 3 3 2 2 12 13 6 4 1 3 3 2 2 2 2 4 4 3 13 21 22 21 19 17 16 14 14 14 15 15 16 14 12 10 8 6 4 2
3 0 1 1 3 1 2 5 6 7 10 7 3 2 2 1 3 2 4 3 4 3 2 4 15 21 21 20 18 15 14 15 14 14 15 16 14 11 10 8 6 4 3 2
3 1 1 2 3 3 3 3 5 4 6 1 1 3 5 2 1 2 3 4 2 3 2 5 12 17 19 18 17 16 16 16 16 17 17 16 15 13 9 6 4 4 3 1

GFSNW_850_spd_108.txt.gz
Wind_Speed
56 52 53 53 46 37 37 18 4 22 23 5 3 3 5 5 5 4 3 3 3 4 4 4 4 5 5 7 4 1 2 2 5 7 10 12 7 4 3 1 2 4 2 2
59 64 58 53 49 48 31 11 11 16 19 4 3 2 3 3 3 2 2 3 2 2 4 2 5 2 4 3 3 3 3 0 4 7 4 0 3 1 3 5 6 5 3 1
65 61 56 50 48 42 26 11 4 4 8 2 4 5 4 4 5 3 3 3 3 3 3 3 2 3 2 2 5 8 2 5 7 6 9 9 8 12 12 14 4 3 2 4
61 59 49 53 50 40 21 6 5 10 5 3 4 3 3 5 4 3 3 1 3 4 2 3 4 2 3 4 4 2 7 6 8 15 17 13 5 6 14 5 4 3 6 6
48 45 49 51 49 35 8 8 7 6 5 15 7 3 6 5 4 5 3 3 5 5 5 5 4 2 3 6 3 5 3 2 1 13 12 4 4 10 8 11 9 10 12 7
46 48 49 52 42 24 5 9 16 12 3 4 5 5 6 5 7 2 4 5 3 4 10 15 19 18 12 7 3 3 3 3 2 2 18 8 5 6 9 9 15 5 4 5
43 41 45 43 33 19 10 20 15 8 2 4 4 6 4 6 5 7 2 8 3 2 10 15 10 14 12 13 16 13 5 4 3 4 6 3 3 5 11 15 11 10 9 7
38 39 41 36 27 14 15 22 11 7 3 4 6 9 6 9 5 1 3 5 4 9 3 2 3 1 2 7 8 5 11 6 3 3 3 4 6 4 3 5 6 8 4 3
34 33 31 27 20 15 17 18 12 12 8 1 13 7 6 4 2 1 3 1 3 3 2 1 2 2 2 2 1 3 4 3 1 3 3 3 2 8 6 7 2 6 6 5
30 29 26 23 20 17 16 15 16 16 10 5 12 4 5 6 3 2 2 3 3 5 2 2 2 1 2 2 4 4 4 3 3 3 4 4 6 13 7 2 3 5 8 9
28 26 24 20 17 14 14 16 16 13 9 9 9 8 7 6 4 3 1 2 3 3 3 2 1 1 1 1 2 4 4 3 3 3 3 3 15 2 1 7 9 11 12 14
26 23 20 17 14 14 13 18 14 22 11 14 14 8 5 6 5 6 3 3 2 2 3 1 1 2 1 2 0 4 2 2 1 4 3 4 8 12 10 7 14 12 15 12
24 21 19 17 15 14 14 22 20 21 25 16 11 11 12 9 7 4 4 2 2 2 1 3 1 3 1 1 1 2 2 3 3 2 3 7 7 10 11 10 16 15 14 12
21 19 17 16 15 15 14 22 19 19 11 6 3 10 7 6 6 7 8 7 3 2 2 3 1 2 4 1 3 2 2 3 5 4 7 9 7 10 12 13 13 13 12 11
20 19 17 16 16 16 15 17 16 13 6 6 8 9 7 6 6 6 6 4 5 3 2 2 2 2 1 1 2 2 2 2 3 3 10 6 8 12 12 14 13 11 10 11
20 19 17 16 15 15 15 8 10 12 18 8 2 5 7 6 7 4 2 2 4 3 2 1 2 2 2 2 1 2 1 4 7 7 12 10 19 15 12 14 12 10 9 8
19 17 15 14 12 8 6 6 9 9 8 5 3 2 4 5 3 1 1 1 1 2 1 1 2 2 3 2 1 5 6 9 14 16 20 14 16 10 11 11 11 9 9 9
17 17 16 15 13 14 15 13 10 8 7 5 3 1 2 5 3 1 1 1 1 1 1 0 2 2 3 1 3 12 14 19 21 9 2 12 14 17 14 11 10 11 11 10
19 20 20 18 11 6 10 10 6 8 5 4 3 4 3 4 2 2 2 1 2 0 1 1 2 1 2 5 16 17 18 11 8 3 12 16 19 17 14 13 11 11 11 10
21 19 5 5 6 13 7 2 1 3 4 3 3 3 2 2 2 2 2 1 1 0 0 3 2 1 1 8 18 16 16 9 14 20 16 17 17 17 15 12 11 10 11 11
7 4 5 15 10 3 3 3 4 4 3 2 3 2 2 2 3 2 1 2 1 1 2 1 2 2 4 14 15 14 10 14 13 5 11 12 14 16 15 13 13 12 11 9
5 11 11 7 3 3 3 2 1 1 1 3 5 3 2 3 1 2 1 2 1 2 1 0 2 1 13 18 16 16 15 15 13 7 11 10 10 10 12 14 14 13 11 9
14 4 3 2 2 3 3 2 1 1 4 6 5 1 3 2 1 4 2 3 3 3 1 2 2 8 17 19 17 18 18 19 16 13 12 10 12 13 13 15 14 11 9 7
4 2 3 2 1 2 3 3 3 1 3 12 8 4 2 2 3 1 3 3 2 3 1 4 2 13 20 19 19 20 17 16 18 16 14 13 14 16 15 13 11 9 7 6
3 2 2 1 0 1 1 1 2 3 13 11 6 5 2 3 2 1 2 3 2 4 4 3 5 16 21 20 20 19 18 17 18 18 17 16 17 17 17 14 11 9 6 5
4 3 2 3 2 1 2 6 9 10 9 8 5 2 2 1 3 1 3 3 3 4 2 2 8 17 19 20 19 17 16 16 16 16 16 17 18 15 13 12 10 8 5 4
3 3 4 4 4 4 5 5 5 6 3 2 2 3 4 2 1 2 4 4 3 2 1 1 7 15 18 18 18 17 16 17 17 18 19 19 17 14 12 10 8 7 5 5

GFSNW_850_spd_114.txt.gz
Wind_Speed
40 36 30 31 46 51 47 29 4 39 39 9 6 9 9 9 13 9 3 3 3 8 9 7 7 6 3 8 10 5 5 4 7 9 4 9 12 10 12 9 6 6 6 6
42 41 34 39 57 57 42 14 9 34 33 6 11 9 10 11 12 12 8 7 4 3 8 6 8 3 3 9 9 6 7 6 4 6 4 7 4 9 10 7 8 14 9 1
45 44 41 52 61 53 39 12 6 8 20 10 16 15 18 13 9 9 6 5 6 8 7 6 5 8 6 6 7 4 5 6 9 8 7 3 5 6 9 10 7 12 9 5
50 47 45 62 62 61 46 10 7 18 12 15 15 18 18 16 10 6 9 4 9 10 7 9 7 9 5 5 7 7 3 7 9 14 16 13 12 12 11 7 9 9 3 6
51 49 50 66 69 66 34 13 9 26 22 26 17 20 17 20 8 9 9 9 13 11 8 9 9 10 7 5 9 10 7 7 2 10 14 15 5 4 8 4 3 5 12 8
54 54 62 76 78 68 17 13 19 25 22 20 17 18 17 15 11 6 8 13 9 11 10 6 3 8 4 3 6 10 5 6 3 2 1 9 6 2 3 4 5 2 3 7
50 59 75 81 76 56 29 28 29 10 13 17 18 23 13 16 18 7 10 15 9 6 9 5 3 7 11 13 13 12 3 6 3 2 7 5 5 5 8 8 6 8 12 10
70 72 79 66 62 39 39 37 19 10 9 14 17 19 17 19 15 9 9 10 6 11 5 3 4 4 4 9 14 15 10 6 3 4 9 4 8 6 4 1 4 1 6 8
80 71 65 61 40 36 40 33 23 17 12 15 28 21 27 15 9 8 6 7 8 6 3 4 5 5 1 6 6 10 9 12 6 6 4 4 6 5 3 1 4 4 5 7
69 63 50 46 45 42 37 31 26 29 12 8 29 14 17 12 12 6 9 10 7 7 5 5 5 3 1 4 5 5 4 5 13 10 4 4 4 1 5 4 4 6 7 8
56 50 46 45 40 37 30 28 26 23 9 12 9 14 12 12 14 8 12 7 4 6 6 4 3 2 2 2 1 1 3 3 4 3 3 4 4 5 4 8 11 12 13 13
49 44 40 37 30 23 23 26 18 19 18 12 19 18 13 10 9 12 12 1 8 5 3 2 3 3 2 3 3 2 3 2 1 4 4 4 7 12 14 12 17 15 16 14
37 32 30 28 25 22 23 31 30 37 29 21 13 13 14 12 11 13 6 5 5 5 3 5 2 3 3 3 2 3 3 3 1 5 5 8 10 10 13 14 17 15 15 14
30 27 25 24 23 23 25 34 26 24 17 7 7 12 13 14 11 8 7 14 10 10 6 3 2 2 2 3 2 1 2 7 6 4 7 10 7 10 15 17 16 16 14 13
28 25 24 25 26 30 32 30 26 19 10 9 14 15 13 12 10 13 12 11 10 8 4 3 2 3 3 2 2 3 5 3 3 2 15 2 17 15 17 19 17 15 16 15
30 30 30 31 31 29 28 13 18 26 32 13 5 9 8 9 9 10 9 7 5 3 2 4 3 2 2 3 2 3 4 5 2 6 11 10 20 19 16 18 17 15 15 14
29 28 27 27 27 22 9 9 17 23 17 8 6 6 5 7 6 5 6 6 3 2 3 2 4 4 2 2 2 9 7 7 13 19 24 18 20 13 18 18 16 16 15 14
25 25 24 22 19 25 27 25 20 16 13 7 4 4 9 5 5 4 2 3 2 3 2 3 1 3 2 2 6 11 12 15 18 16 5 17 16 20 18 17 17 16 15 15
27 28 28 25 21 11 17 20 16 11 8 5 3 7 4 6 4 3 3 1 2 1 1 2 2 2 2 2 16 16 20 11 15 10 16 20 22 21 19 17 16 15 16 15
22 16 8 7 8 18 16 7 3 6 6 5 3 3 5 6 4 3 3 1 2 2 2 3 2 0 4 5 12 17 17 14 17 21 21 22 22 21 20 17 16 15 16 16
6 6 6 16 10 5 4 5 4 3 3 4 4 7 8 3 2 3 1 2 0 2 3 2 2 2 4 11 15 19 12 13 12 8 16 18 20 22 21 19 17 17 18 17
10 16 15 6 3 4 5 3 2 2 3 3 8 8 6 3 2 2 2 2 2 1 1 2 2 3 8 16 16 17 12 14 10 13 18 18 18 18 18 19 19 20 19 16
8 5 5 4 5 5 3 3 3 3 4 6 8 5 3 3 2 4 1 2 2 2 2 2 2 6 12 15 16 15 15 13 15 16 16 17 18 18 20 22 21 19 17 14
6 5 5 4 3 4 3 3 4 4 7 13 10 5 2 2 2 1 2 2 1 2 2 1 2 8 15 17 17 18 19 17 17 17 18 18 19 20 19 19 18 17 16 14
5 4 4 4 2 3 4 7 7 8 9 9 8 5 3 2 2 1 2 2 2 2 1 2 2 10 16 19 19 19 21 20 17 16 17 18 19 21 21 20 18 16 14 13
5 6 4 2 2 8 11 12 8 8 8 6 4 3 2 2 1 2 1 2 1 1 1 1 2 11 17 19 19 18 20 20 17 17 16 17 18 20 21 20 18 15 13 11
4 5 9 7 9 8 8 10 7 6 3 2 1 2 2 3 2 1 1 1 2 2 2 1 3 11 17 18 18 19 18 18 19 19 19 18 20 21 20 19 17 14 13 12

GFSNW_850_spd_117.txt.gz
Wind_Speed
38 34 31 31 26 30 44 26 4 40 47 9 5 12 11 11 13 14 8 8 12 10 10 11 12 10 6 9 6 6 9 5 11 16 11 9 14 16 15 11 13 7 13 7
39 38 34 35 31 44 43 18 9 40 32 7 14 13 17 11 14 17 12 10 9 7 10 8 10 4 5 6 10 6 6 7 7 8 7 10 9 14 14 9 9 15 9 2
43 41 39 40 38 53 42 13 5 9 17 13 14 20 16 17 19 14 13 10 9 10 8 9 5 8 6 9 13 3 2 8 9 11 10 5 5 7 9 12 11 14 12 2
47 44 44 46 44 60 44 12 7 18 11 13 13 17 15 21 12 15 17 10 16 13 11 13 11 9 8 7 10 7 8 10 10 15 16 15 13 12 12 11 15 10 7 2
50 47 49 50 50 63 35 16 9 24 14 28 19 19 16 23 19 17 20 12 14 12 14 11 7 13 11 8 12 13 12 7 7 11 16 15 15 15 13 9 8 5 2 4
52 53 51 54 53 71 28 31 25 27 19 22 17 19 20 23 17 15 18 14 12 13 12 7 4 8 14 6 9 13 10 5 6 7 3 4 7 9 8 3 3 5 9 8
54 55 55 55 58 74 36 32 25 13 7 17 22 23 22 20 18 8 10 15 14 4 8 6 4 6 10 10 10 11 6 7 6 5 4 8 4 4 4 5 4 7 11 10
59 57 59 58 62 81 43 35 35 10 6 20 23 21 20 20 16 9 12 12 8 13 13 6 6 5 4 12 16 14 8 5 4 4 9 6 8 7 7 7 6 6 11 12
54 56 59 60 59 81 48 38 28 20 10 17 30 23 27 14 14 11 13 10 12 13 6 4 6 7 8 7 6 16 12 12 9 5 7 3 9 11 6 6 6 11 11 13
52 47 55 50 69 71 45 40 22 17 8 13 30 21 23 26 18 10 18 15 10 11 6 6 8 7 4 6 9 8 4 4 14 12 8 4 6 7 6 5 5 12 11 11
47 53 53 66 68 51 45 36 23 20 10 22 26 26 31 26 19 10 19 10 8 9 7 6 5 3 2 3 2 5 8 5 7 10 6 5 3 7 4 6 12 14 14 14
63 68 70 67 57 47 42 31 26 28 20 23 21 20 16 12 14 14 26 3 21 9 8 4 2 2 2 3 3 4 4 3 4 5 4 5 4 9 12 12 16 16 18 17
63 61 59 52 48 43 33 35 35 28 37 24 18 14 10 13 14 13 11 7 11 6 2 3 2 2 4 4 3 4 3 2 1 6 6 6 7 8 12 15 18 18 18 18
60 55 48 42 39 36 40 38 21 32 18 8 8 10 10 8 9 9 5 11 8 9 6 3 2 2 2 2 2 2 2 7 5 4 7 9 8 12 15 18 18 18 16 16
46 42 37 36 44 41 42 34 25 23 11 11 18 17 12 11 12 11 10 12 13 12 7 2 2 2 3 2 4 4 7 3 4 1 18 5 19 16 18 19 18 17 18 17
39 38 39 39 40 39 36 22 22 21 44 22 5 11 11 11 11 11 11 9 6 4 3 3 3 3 3 3 2 3 5 3 2 4 17 11 20 19 17 18 18 17 17 16
38 39 40 40 33 24 12 10 19 23 17 12 7 6 8 10 9 8 8 5 4 2 3 4 3 3 4 2 2 8 7 7 11 17 22 20 21 19 19 19 18 17 16 15
36 33 30 25 24 27 29 29 23 18 13 8 4 5 9 9 9 6 4 5 5 1 2 3 4 5 4 2 7 9 10 13 15 19 1 18 19 23 20 18 19 19 17 16
32 29 26 25 19 13 16 19 16 12 8 5 4 8 4 8 7 6 5 3 2 2 2 1 2 3 3 2 14 14 17 14 17 9 17 21 24 23 21 20 19 18 18 16
33 24 11 8 7 23 18 8 4 6 6 7 5 11 6 13 10 3 4 2 3 4 2 3 3 1 4 5 11 15 17 11 17 19 20 22 22 23 23 21 18 17 18 17
8 7 7 14 16 6 5 4 3 3 4 5 3 13 10 8 4 5 1 2 1 3 3 3 4 3 5 9 13 15 12 15 14 10 15 18 20 21 21 19 18 18 18 17
11 19 14 7 4 4 4 3 2 1 4 7 9 12 14 6 3 3 3 2 2 1 3 2 2 3 9 14 16 15 13 14 11 11 16 17 18 19 18 18 18 18 19 19
12 6 5 2 4 3 1 4 3 4 6 9 14 7 6 4 3 3 2 3 1 5 1 2 3 8 12 15 17 14 12 12 12 15 15 17 17 17 19 21 22 22 19 18
6 4 5 4 3 4 3 5 6 4 13 16 14 7 4 3 3 1 2 1 2 3 3 3 5 8 13 16 16 16 16 16 17 18 19 21 23 22 22 20 20 20 20 18
6 5 4 4 5 9 8 10 10 13 15 13 10 6 5 3 3 1 3 2 3 3 1 2 4 9 15 19 20 21 20 19 18 19 21 21 21 21 20 20 21 19 18 17
5 7 4 6 10 9 14 13 13 12 10 8 5 3 3 2 2 2 2 2 1 2 2 3 4 10 15 19 19 20 21 19 17 16 17 18 20 20 21 22 20 19 16 15
4 4 10 12 13 9 7 10 9 4 4 2 1 3 2 2 2 2 1 2 2 3 3 2 4 11 15 17 18 18 20 19 17 17 18 18 20 20 21 22 21 18 16 14

GFSNW_850_spd_123.txt.gz
Wind_Speed
30 28 27 25 23 23 21 20 5 13 26 6 2 8 6 13 16 20 12 5 3 5 5 4 3 10 2 9 9 6 2 2 2 5 9 13 6 6 6 4 6 5 6 5
36 32 29 26 27 30 28 17 9 13 32 8 5 6 11 10 7 14 2 8 5 3 4 3 4 7 5 12 5 5 2 1 2 7 5 4 3 3 6 3 2 9 4 4
39 37 34 34 31 33 32 15 4 7 13 7 9 10 15 15 16 18 8 8 10 3 5 4 2 6 1 5 8 8 6 2 6 6 3 5 6 10 6 3 3 3 6 5
40 39 37 38 38 36 38 21 6 12 6 13 10 11 8 18 13 21 17 14 8 6 5 1 4 6 5 5 8 4 4 3 1 4 8 11 12 12 12 7 9 4 5 4
41 43 40 40 40 41 42 19 7 15 8 17 14 7 11 15 18 8 12 8 8 8 6 6 3 6 4 5 5 4 1 2 3 5 11 14 17 14 13 10 9 2 6 3
38 42 43 44 45 46 34 23 34 23 12 11 13 18 18 13 8 11 16 10 7 6 6 5 10 8 4 11 8 6 5 4 2 5 7 6 8 13 12 8 6 4 6 5
40 41 44 46 47 53 46 37 36 10 5 13 19 18 19 17 15 9 11 17 7 7 12 12 8 8 2 13 9 15 5 5 2 3 5 4 5 3 4 4 5 10 12 13
47 45 45 48 49 55 56 25 33 18 5 13 15 17 21 23 19 3 2 4 14 18 13 4 4 2 2 4 6 8 6 4 2 2 3 3 1 2 3 3 5 9 13 15
50 48 47 49 52 55 51 56 30 28 4 6 22 19 18 12 10 5 3 10 14 18 4 3 6 5 5 5 4 11 7 5 4 2 3 3 3 4 5 0 4 14 22 19
59 54 49 50 53 55 52 46 32 22 8 15 17 14 16 19 10 6 7 8 6 16 3 4 3 4 7 5 7 8 6 5 12 6 4 4 5 8 11 1 4 21 25 25
68 60 54 52 53 54 51 49 38 27 14 1 14 16 19 20 24 9 19 7 1 3 5 4 4 3 4 4 5 7 8 6 4 4 4 7 5 4 4 2 9 20 24 27
66 63 57 54 54 52 47 39 40 35 16 1 2 5 11 25 32 22 24 8 12 9 4 3 3 1 1 3 2 6 4 5 4 4 2 2 4 4 5 9 18 17 28 29
65 62 57 56 52 49 49 42 31 27 11 5 7 11 13 16 28 25 11 8 18 11 13 3 2 2 1 1 4 4 1 2 3 3 4 6 5 7 8 13 16 17 23 27
60 57 57 52 49 46 46 44 27 24 15 3 4 10 13 8 19 17 15 18 21 15 14 2 2 2 4 0 1 3 4 6 6 2 5 7 7 12 17 18 17 18 20 23
55 53 51 49 45 44 46 47 21 26 10 5 6 11 6 16 16 15 19 18 18 13 4 2 2 3 3 1 2 2 3 5 4 5 17 7 13 21 20 21 21 21 25 25
51 49 46 45 42 45 36 17 20 21 20 10 3 7 8 13 11 13 16 16 15 12 5 3 4 3 2 2 2 3 4 3 5 4 10 5 22 24 22 22 23 21 22 24
47 47 44 44 44 43 18 7 23 26 17 8 4 2 8 17 17 12 11 13 10 5 4 3 5 5 5 1 2 6 5 3 9 14 18 18 27 19 22 22 22 19 21 21
49 49 48 45 38 26 21 29 36 29 13 8 3 3 5 14 10 4 7 4 4 1 3 6 4 8 3 2 5 11 9 13 16 15 2 14 22 25 23 24 24 24 23 24
59 59 48 39 32 21 31 32 25 9 6 7 4 4 3 8 10 7 5 4 2 1 1 2 8 2 3 6 18 18 19 16 14 12 7 21 26 27 27 26 25 26 26 26
51 37 16 11 20 39 31 18 8 3 3 4 3 9 3 17 8 4 4 3 3 1 3 5 2 2 4 5 10 14 20 14 15 19 22 23 24 27 27 26 25 27 28 27
18 9 12 35 25 15 5 4 4 4 2 3 6 19 8 17 4 3 4 2 1 2 3 4 2 1 3 12 11 11 18 12 16 18 20 24 26 28 27 25 24 25 25 25
21 35 26 15 5 4 4 1 1 3 4 5 6 16 16 6 7 4 1 2 3 1 1 3 2 1 13 14 15 14 10 13 13 16 20 21 23 24 25 24 23 26 26 23
25 11 5 3 4 5 4 4 2 3 3 11 18 5 6 4 4 4 3 3 2 4 3 3 2 9 9 10 12 12 11 13 13 17 21 21 22 22 24 24 24 25 24 21
7 5 5 3 3 2 1 2 3 4 18 25 21 6 4 4 4 1 4 2 2 1 1 2 2 10 10 12 14 16 14 12 11 16 17 20 23 23 22 23 25 23 21 21
6 6 4 4 1 4 5 8 19 27 27 21 13 7 6 2 3 2 3 1 3 4 2 2 5 8 13 16 17 17 16 15 15 16 18 21 21 22 22 22 21 18 18 20
6 8 5 5 6 6 13 17 19 19 16 13 8 3 3 0 4 2 4 5 1 2 2 4 5 8 10 14 15 15 14 13 16 16 17 18 19 19 19 19 18 17 18 19
5 4 13 9 7 12 16 14 9 7 5 1 3 3 2 1 1 2 3 2 2 4 4 3 4 8 11 12 14 15 13 13 14 14 15 16 16 16 17 19 19 19 19 17